Location: Unspecified
(0.0000°N, 0.0000°E)
Time: 07:38:24
(UTC+00:00)

S-56A Canister/Altair - Pass Details

Date: 20 December 2018
Orbit: 633 x 2500 km, 38.9° (Epoch: 18 March)

Event Time Altitude Azimuth Distance (km) Brightness Sun altitude
Rises 06:47:17 0° 334° (NNW) 5,686 11.5 11.4°
Reaches altitude 10° 06:52:07 10° 348° (NNW) 4,902 11.3 12.5°
Maximum altitude 07:02:42 24° 35° (NE) 4,114 11.5 14.9°
Drops below altitude 10° 07:13:28 10° 82° (E) 5,055 12.8 17.4°
Sets 07:18:27 0° 95° (E) 5,904 13.4 18.5°
